Radiation Dose at Monitoring Post of Fukushima Daini Nuclear Power Station
Date,Time,MP-1(microSv/h),MP-2(microSv/h),MP-3(microSv/h),MP-4(microSv/h),MP-5(microSv/h),MP-6(microSv/h),MP-7(microSv/h),Wind Direction,Wind Velocity(m/s),Rain
2017/05/08,00:00,0.387,0.233,0.405,0.374,0.332,0.195,0.169,south,2.9,No
2017/05/08,00:10,0.388,0.232,0.407,0.373,0.335,0.195,0.170,south-southwest,4.4,No
2017/05/08,00:20,0.387,0.233,0.405,0.372,0.332,0.196,0.168,south-southwest,6.6,No
2017/05/08,00:30,0.390,0.233,0.407,0.374,0.333,0.194,0.169,south-southwest,5.8,No
2017/05/08,00:40,0.386,0.234,0.406,0.373,0.333,0.197,0.169,south-southwest,4.7,No
2017/05/08,00:50,0.387,0.234,0.403,0.374,0.333,0.196,0.169,south-southwest,5.7,No
2017/05/08,01:00,0.389,0.233,0.408,0.376,0.333,0.195,0.170,south-southwest,3.8,No
2017/05/08,01:10,0.387,0.232,0.406,0.374,0.332,0.195,0.170,south-southwest,5.1,No
2017/05/08,01:20,0.389,0.233,0.405,0.376,0.333,0.195,0.169,south-southwest,8.7,No
2017/05/08,01:30,0.386,0.233,0.405,0.372,0.332,0.196,0.168,south-southwest,6.5,No
2017/05/08,01:40,0.388,0.233,0.406,0.375,0.332,0.195,0.170,south-southwest,5.4,No
2017/05/08,01:50,0.388,0.234,0.407,0.375,0.335,0.196,0.168,south-southwest,6.7,No
2017/05/08,02:00,0.387,0.234,0.406,0.373,0.335,0.195,0.168,south-southwest,6.4,No
2017/05/08,02:10,0.388,0.233,0.404,0.376,0.332,0.195,0.169,south-southwest,3.8,No
2017/05/08,02:20,0.388,0.234,0.407,0.374,0.333,0.195,0.170,south-southwest,6.9,No
2017/05/08,02:30,0.387,0.233,0.405,0.375,0.332,0.195,0.170,south-southwest,7.6,No
2017/05/08,02:40,0.388,0.234,0.407,0.375,0.333,0.194,0.170,south-southwest,9.2,No
2017/05/08,02:50,0.388,0.232,0.405,0.375,0.333,0.195,0.169,south,8.5,No
2017/05/08,03:00,0.388,0.233,0.404,0.376,0.331,0.195,0.169,south,7.0,No
2017/05/08,03:10,0.388,0.234,0.406,0.374,0.333,0.197,0.168,south,7.3,No
2017/05/08,03:20,0.388,0.233,0.406,0.376,0.333,0.197,0.170,south-southwest,4.3,No
2017/05/08,03:30,0.387,0.234,0.404,0.376,0.331,0.195,0.170,south,5.6,No
2017/05/08,03:40,0.387,0.232,0.408,0.374,0.333,0.195,0.169,south,7.4,No
2017/05/08,03:50,0.388,0.234,0.405,0.376,0.331,0.195,0.170,south,6.2,No
2017/05/08,04:00,0.387,0.233,0.407,0.373,0.334,0.195,0.170,south-southwest,1.6,No
2017/05/08,04:10,0.386,0.235,0.406,0.375,0.332,0.196,0.170,south,5.4,No
2017/05/08,04:20,0.389,0.234,0.405,0.374,0.332,0.196,0.170,south,4.4,No
2017/05/08,04:30,0.387,0.233,0.406,0.374,0.333,0.195,0.170,south,5.7,No
2017/05/08,04:40,0.388,0.235,0.404,0.377,0.332,0.196,0.169,south,7.9,No
2017/05/08,04:50,0.388,0.234,0.406,0.374,0.332,0.196,0.170,south,7.3,No
2017/05/08,05:00,0.388,0.233,0.406,0.374,0.333,0.196,0.169,south-southwest,5.9,No
2017/05/08,05:10,0.388,0.233,0.405,0.374,0.333,0.196,0.170,south-southwest,7.4,No
2017/05/08,05:20,0.388,0.233,0.407,0.375,0.334,0.196,0.168,south-southwest,8.0,No
2017/05/08,05:30,0.388,0.233,0.405,0.376,0.331,0.197,0.169,south-southwest,8.1,No
2017/05/08,05:40,0.387,0.231,0.405,0.374,0.333,0.196,0.169,south-southwest,8.1,No
2017/05/08,05:50,0.388,0.233,0.408,0.375,0.332,0.195,0.168,south-southwest,7.3,No
2017/05/08,06:00,0.388,0.233,0.404,0.374,0.333,0.196,0.169,south-southwest,6.7,No
2017/05/08,06:10,0.388,0.234,0.406,0.375,0.332,0.195,0.169,south-southwest,5.1,No
2017/05/08,06:20,0.387,0.233,0.406,0.375,0.331,0.195,0.168,south,4.0,No
2017/05/08,06:30,0.390,0.232,0.404,0.373,0.333,0.195,0.169,south,5.6,No
2017/05/08,06:40,0.386,0.233,0.408,0.375,0.330,0.196,0.169,south-southwest,4.5,No
2017/05/08,06:50,0.388,0.233,0.404,0.373,0.333,0.196,0.168,south-southwest,5.3,No
2017/05/08,07:00,0.387,0.233,0.406,0.376,0.330,0.195,0.168,south,7.3,No
2017/05/08,07:10,0.390,0.232,0.403,0.372,0.334,0.196,0.168,south,7.5,No
2017/05/08,07:20,0.386,0.233,0.405,0.373,0.330,0.197,0.168,south-southwest,7.9,No
2017/05/08,07:30,0.389,0.232,0.404,0.375,0.334,0.195,0.167,south,6.6,No
2017/05/08,07:40,0.386,0.233,0.400,0.370,0.330,0.196,0.170,south,7.1,No
2017/05/08,07:50,0.388,0.230,0.405,0.373,0.334,0.197,0.169,south,7.8,No
2017/05/08,08:00,0.386,0.231,0.403,0.373,0.331,0.196,0.169,south-southwest,6.6,No
2017/05/08,08:10,0.384,0.233,0.406,0.371,0.332,0.194,0.168,south-southwest,7.7,No
2017/05/08,08:20,0.388,0.232,0.406,0.371,0.331,0.195,0.167,south-southwest,8.9,No
2017/05/08,08:30,0.384,0.230,0.404,0.373,0.329,0.196,0.169,south-southwest,10.4,No
2017/05/08,08:40,0.382,0.233,0.408,0.372,0.332,0.195,0.169,south-southwest,9.5,No
2017/05/08,08:50,0.386,0.234,0.404,0.370,0.332,0.195,0.168,south-southwest,8.1,No
2017/05/08,09:00,0.386,0.232,0.406,0.370,0.329,0.194,0.167,south,9.8,No
2017/05/08,09:10,0.383,0.231,0.405,0.374,0.328,0.195,0.167,south,10.6,No
2017/05/08,09:20,0.382,0.230,0.401,0.372,0.332,0.195,0.168,south-southwest,10.6,No
2017/05/08,09:30,0.381,0.232,0.408,0.371,0.334,0.196,0.169,south,10.8,No
2017/05/08,09:40,0.387,0.232,0.404,0.371,0.330,0.196,0.168,south,13.9,No
2017/05/08,09:50,0.390,0.234,0.405,0.368,0.329,0.194,0.168,south,13.5,No
2017/05/08,10:00,0.385,0.231,0.407,0.371,0.333,0.195,0.166,south,12.1,No
2017/05/08,10:10,0.383,0.231,0.403,0.375,0.335,0.195,0.169,south,12.2,No
2017/05/08,10:20,0.383,0.231,0.400,0.374,0.330,0.194,0.169,south,13.0,No
2017/05/08,10:30,0.381,0.235,0.402,0.372,0.329,0.195,0.169,south,12.6,No
2017/05/08,10:40,0.385,0.234,0.407,0.371,0.330,0.195,0.169,south,10.0,No
2017/05/08,10:50,0.388,0.233,0.406,0.369,0.334,0.196,0.170,south,10.5,No
2017/05/08,11:00,0.388,0.231,0.404,0.373,0.333,0.194,0.169,south,12.3,No
2017/05/08,11:10,0.384,0.233,0.402,0.376,0.330,0.195,0.168,south,10.7,No
2017/05/08,11:20,0.384,0.234,0.401,0.374,0.329,0.196,0.169,south,11.5,No
2017/05/08,11:30,0.388,0.232,0.401,0.374,0.333,0.195,0.169,south,9.5,No
2017/05/08,11:40,0.388,0.232,0.402,0.372,0.334,0.195,0.169,south,10.1,No
2017/05/08,11:50,0.386,0.233,0.408,0.372,0.332,0.196,0.170,south-southwest,9.9,No
2017/05/08,12:00,0.384,0.233,0.408,0.378,0.328,0.196,0.169,south,9.8,No
2017/05/08,12:10,0.386,0.231,0.405,0.374,0.332,0.195,0.170,south,7.8,No
2017/05/08,12:20,0.391,0.233,0.403,0.373,0.334,0.195,0.170,south,7.8,No
2017/05/08,12:30,0.389,0.233,0.402,0.372,0.332,0.195,0.169,south,6.0,No
2017/05/08,12:40,0.386,0.232,0.401,0.377,0.331,0.195,0.169,south,6.7,No
2017/05/08,12:50,0.387,0.233,0.403,0.375,0.329,0.195,0.170,south,2.4,No
2017/05/08,13:00,0.390,0.234,0.402,0.373,0.334,0.196,0.169,west-northwest,4.5,No
2017/05/08,13:10,0.388,0.233,0.403,0.373,0.335,0.196,0.168,southwest,5.3,No
2017/05/08,13:20,0.385,0.232,0.403,0.372,0.332,0.196,0.170,south,2.2,No
2017/05/08,13:30,0.385,0.232,0.405,0.373,0.333,0.195,0.169,northwest,3.2,No
2017/05/08,13:40,0.389,0.232,0.405,0.372,0.332,0.195,0.168,west-northwest,7.7,No
2017/05/08,13:50,0.390,0.230,0.405,0.373,0.330,0.195,0.168,west-northwest,7.5,No
2017/05/08,14:00,0.386,0.232,0.406,0.373,0.331,0.196,0.168,west,10.4,No
2017/05/08,14:10,0.386,0.231,0.406,0.373,0.332,0.197,0.168,west,8.7,No
2017/05/08,14:20,0.386,0.233,0.407,0.374,0.332,0.197,0.169,northwest,9.3,No
2017/05/08,14:30,0.384,0.232,0.406,0.375,0.332,0.197,0.169,west,7.8,No
2017/05/08,14:40,0.387,0.232,0.408,0.373,0.329,0.196,0.169,west,6.4,No
2017/05/08,14:50,0.384,0.233,0.405,0.374,0.331,0.196,0.169,west-northwest,4.4,No
2017/05/08,15:00,0.389,0.233,0.406,0.372,0.333,0.197,0.169,northwest,8.9,No
2017/05/08,15:10,0.390,0.234,0.405,0.372,0.331,0.196,0.167,west-northwest,10.1,No
2017/05/08,15:20,0.389,0.232,0.406,0.376,0.331,0.196,0.167,west-northwest,9.0,No
2017/05/08,15:30,0.387,0.234,0.405,0.378,0.332,0.196,0.168,northwest,10.6,No
2017/05/08,15:40,0.385,0.235,0.405,0.375,0.332,0.197,0.170,west-northwest,10.5,No
2017/05/08,15:50,0.388,0.235,0.406,0.373,0.330,0.195,0.170,northwest,7.4,No
2017/05/08,16:00,0.392,0.233,0.410,0.378,0.331,0.196,0.169,west-northwest,6.4,No
2017/05/08,16:10,0.389,0.236,0.409,0.377,0.331,0.196,0.169,west-northwest,8.4,No
2017/05/08,16:20,0.386,0.235,0.406,0.374,0.330,0.196,0.170,northwest,11.5,No
2017/05/08,16:30,0.389,0.234,0.408,0.375,0.330,0.195,0.169,northwest,10.7,No
2017/05/08,16:40,0.391,0.234,0.410,0.378,0.330,0.196,0.169,northwest,9.2,No
2017/05/08,16:50,0.389,0.235,0.407,0.374,0.330,0.197,0.170,northwest,7.2,No
2017/05/08,17:00,0.388,0.234,0.406,0.374,0.330,0.197,0.169,northwest,7.3,No
2017/05/08,17:10,0.392,0.236,0.410,0.380,0.336,0.195,0.169,west-northwest,9.1,No
2017/05/08,17:20,0.390,0.235,0.406,0.374,0.334,0.196,0.170,west-northwest,8.6,No
2017/05/08,17:30,0.389,0.234,0.408,0.376,0.333,0.197,0.169,west-northwest,5.0,No
2017/05/08,17:40,0.392,0.235,0.411,0.377,0.333,0.196,0.170,west-northwest,6.2,No
2017/05/08,17:50,0.388,0.234,0.405,0.373,0.336,0.197,0.170,west-northwest,6.7,No
2017/05/08,18:00,0.390,0.234,0.409,0.377,0.331,0.197,0.170,west-northwest,5.2,No
2017/05/08,18:10,0.392,0.235,0.409,0.376,0.335,0.195,0.170,west,4.9,No
2017/05/08,18:20,0.387,0.234,0.407,0.375,0.334,0.197,0.169,west,3.1,No
2017/05/08,18:30,0.392,0.234,0.410,0.377,0.332,0.195,0.171,west-northwest,2.8,No
2017/05/08,18:40,0.389,0.234,0.406,0.374,0.335,0.197,0.169,west,2.7,No
2017/05/08,18:50,0.387,0.235,0.408,0.378,0.332,0.195,0.170,west,1.4,No
2017/05/08,19:00,0.389,0.234,0.407,0.375,0.336,0.196,0.170,west-southwest,3.4,No
2017/05/08,19:10,0.389,0.235,0.409,0.378,0.333,0.196,0.170,north-northwest,0.8,No
2017/05/08,19:20,0.392,0.233,0.409,0.375,0.333,0.196,0.170,northwest,2.0,No
2017/05/08,19:30,0.389,0.234,0.407,0.376,0.333,0.197,0.170,west-northwest,1.6,No
2017/05/08,19:40,0.390,0.233,0.408,0.378,0.332,0.196,0.169,west-northwest,1.3,No
2017/05/08,19:50,0.390,0.233,0.406,0.376,0.335,0.196,0.170,west,3.9,No
2017/05/08,20:00,0.389,0.233,0.410,0.378,0.333,0.196,0.169,west,3.3,No
2017/05/08,20:10,0.391,0.234,0.406,0.375,0.334,0.196,0.170,west-northwest,2.2,No
2017/05/08,20:20,0.388,0.233,0.410,0.377,0.333,0.196,0.170,west,2.8,No
2017/05/08,20:30,0.391,0.234,0.406,0.374,0.334,0.196,0.169,west,4.0,No
2017/05/08,20:40,0.387,0.235,0.409,0.378,0.334,0.196,0.170,west-northwest,2.2,No
2017/05/08,20:50,0.392,0.233,0.406,0.374,0.334,0.197,0.169,west-northwest,1.7,No
2017/05/08,21:00,0.388,0.235,0.410,0.377,0.332,0.195,0.170,west-northwest,0.8,No
2017/05/08,21:10,0.392,0.233,0.407,0.376,0.336,0.195,0.169,west-northwest,2.5,No
2017/05/08,21:20,0.389,0.235,0.409,0.378,0.330,0.196,0.170,north-northeast,0.8,No
2017/05/08,21:30,0.392,0.233,0.408,0.376,0.334,0.196,0.169,north-northwest,1.3,No
2017/05/08,21:40,0.389,0.235,0.410,0.376,0.332,0.196,0.169,northwest,1.4,No
2017/05/08,21:50,0.391,0.234,0.406,0.375,0.334,0.197,0.169,north-northwest,3.0,No
2017/05/08,22:00,0.391,0.235,0.409,0.377,0.332,0.195,0.170,northwest,1.6,No
2017/05/08,22:10,0.389,0.235,0.406,0.376,0.333,0.195,0.169,west-northwest,3.1,No
2017/05/08,22:20,0.390,0.234,0.409,0.376,0.332,0.197,0.170,west,8.3,No
2017/05/08,22:30,0.389,0.235,0.407,0.376,0.334,0.195,0.169,west-northwest,5.9,No
2017/05/08,22:40,0.390,0.232,0.409,0.376,0.331,0.197,0.170,west,8.9,No
2017/05/08,22:50,0.388,0.235,0.407,0.377,0.334,0.195,0.170,west,8.7,No
2017/05/08,23:00,0.390,0.233,0.409,0.377,0.332,0.197,0.170,west-northwest,5.7,No
2017/05/08,23:10,0.388,0.234,0.407,0.376,0.334,0.195,0.170,west-northwest,6.5,No
2017/05/08,23:20,0.390,0.234,0.410,0.376,0.332,0.196,0.170,west-northwest,4.3,No
2017/05/08,23:30,0.389,0.233,0.407,0.377,0.335,0.197,0.170,north,2.3,No
2017/05/08,23:40,0.390,0.234,0.409,0.374,0.332,0.195,0.169,north-northwest,1.6,No
2017/05/08,23:50,0.390,0.233,0.407,0.377,0.335,0.196,0.170,west-northwest,2.6,No
